カタログに戻る

COSMOS 1823 DEB

LostLEO
NORAD 29361·DEBRIS·🇷🇺 Russia

打ち上げ Feb 20, 1987 から Plesetsk Cosmodrome

Loading…

次のパス (今後24時間)

TLE

古いSource: Space-Track

元期: Mar 11, 2015, 13:02 UTC

1 29361U 87020EC  15070.54369151 -.00000003 +00000-0 +10000-3 0  9993
2 29361 073.6312 145.3373 0024604 341.2529 023.9319 12.43525808432759

AllMySatでCOSMOS 1823 DEBをリアルタイム追跡

Download on the App Store